,,Stat5,,Stat1,,Stat2,,Stat3,,Stat4,,Wind1,,Wind1,
time,status,PA1M_AVG,status,PR1M_SUM,status,RH1M_AVG,status,SR1M_AVG,status,TA1M_AVG,status,W1dAve1m,status,W1sAve1m,
2001-03-20, 00:00:00,VALID,918.379,VALID,0,VALID,93.1438,VALID,-0.0169808,VALID,20.0913,VALID,89,VALID,0.771234,
2001-03-20, 00:01:00,VALID,918.359,VALID,0,VALID,93.1527,VALID,0,VALID,20.1018,VALID,94,VALID,0.831572,
2001-03-20, 00:02:00,VALID,918.336,VALID,0,VALID,93.0789,VALID,0,VALID,20.1013,VALID,93,VALID,0.88528,
2001-03-20, 00:03:01,VALID,918.315,VALID,0,VALID,93.3637,VALID,0,VALID,20.1209,VALID,84,VALID,0.929688,
2001-03-20, 00:04:00,VALID,918.299,VALID,0,VALID,93.646,VALID,0,VALID,20.1661,VALID,85,VALID,0.702919,
2001-03-20, 00:05:00,VALID,918.289,VALID,0,VALID,93.3968,VALID,-0.0169808,VALID,20.1952,VALID,64,VALID,0.823057,
2001-03-20, 00:06:00,VALID,918.305,VALID,0,VALID,93.3599,VALID,0,VALID,20.2437,VALID,63,VALID,0.494922,
2001-03-20, 00:07:00,VALID,918.308,VALID,0,VALID,93.3828,VALID,0.0169808,VALID,20.2986,VALID,61,VALID,0.339021,
2001-03-20, 00:08:01,VALID,918.307,VALID,0,VALID,93.3905,VALID,0.0169808,VALID,20.343,VALID,88,VALID,1.21289,
2001-03-20, 00:09:00,VALID,918.276,VALID,0,VALID,93.215,VALID,0,VALID,20.3691,VALID,82,VALID,0.949219,
2001-03-20, 00:10:00,VALID,918.274,VALID,0,VALID,93.1806,VALID,0,VALID,20.3888,VALID,86,VALID,1.26462,
2001-03-20, 00:11:00,VALID,918.26,VALID,0,VALID,93.3485,VALID,0,VALID,20.3925,VALID,78,VALID,1.32442,
2001-03-20, 00:12:00,VALID,918.244,VALID,0,VALID,93.3803,VALID,0.0169808,VALID,20.3885,VALID,77,VALID,1.1623,
2001-03-20, 00:13:00,VALID,918.247,VALID,0,VALID,93.5329,VALID,0.0169808,VALID,20.385,VALID,91,VALID,0.901172,
2001-03-20, 00:14:00,VALID,918.221,VALID,0,VALID,93.4146,VALID,0.0169808,VALID,20.3656,VALID,100,VALID,1.16867,
2001-03-20, 00:15:00,VALID,918.218,VALID,0,VALID,93.6448,VALID,0,VALID,20.35,VALID,97,VALID,0.895148,
2001-03-20, 00:16:01,VALID,918.224,VALID,0,VALID,93.8419,VALID,0.0169808,VALID,20.3202,VALID,96,VALID,0.978125,
2001-03-20, 00:17:00,VALID,918.191,VALID,0,VALID,93.7719,VALID,0,VALID,20.2789,VALID,100,VALID,1.35918,
2001-03-20, 00:18:00,VALID,918.159,VALID,0,VALID,93.7249,VALID,0,VALID,20.2205,VALID,102,VALID,1.29207,
2001-03-20, 00:19:00,VALID,918.119,VALID,0,VALID,93.9652,VALID,0,VALID,20.192,VALID,102,VALID,0.920436,
2001-03-20, 00:20:01,VALID,918.128,VALID,0,VALID,94.484,VALID,-0.0169808,VALID,20.1828,VALID,111,VALID,0.619727,
2001-03-20, 00:21:00,VALID,918.163,VALID,0,VALID,94.4319,VALID,-0.0169808,VALID,20.1721,VALID,80,VALID,0.864844,
2001-03-20, 00:22:00,VALID,918.179,VALID,0,VALID,94.5362,VALID,-0.0339617,VALID,20.1656,VALID,79,VALID,0.702724,
2001-03-20, 00:23:00,VALID,918.201,VALID,0,VALID,94.5031,VALID,-0.0169808,VALID,20.1885,VALID,64,VALID,0.661801,
2001-03-20, 00:24:00,VALID,918.221,VALID,0,VALID,94.3887,VALID,-0.0509425,VALID,20.2248,VALID,20,VALID,0.756055,
2001-03-20, 00:25:00,VALID,918.266,VALID,0,VALID,94.2068,VALID,-0.0339617,VALID,20.2606,VALID,48,VALID,0.871875,
2001-03-20, 00:26:00,VALID,918.282,VALID,0,VALID,94.0987,VALID,-0.0509425,VALID,20.2663,VALID,44,VALID,0.580128,
2001-03-20, 00:27:00,VALID,918.291,VALID,0,VALID,94.189,VALID,-0.0509425,VALID,20.2862,VALID,53,VALID,0.50514,
2001-03-20, 00:28:01,VALID,918.299,VALID,0,VALID,94.292,VALID,-0.0509425,VALID,20.2924,VALID,57,VALID,0.36543,
2001-03-20, 00:29:00,VALID,918.27,VALID,0,VALID,94.1445,VALID,-0.0169808,VALID,20.2827,VALID,340,VALID,0.457812,
2001-03-20, 00:30:00,VALID,918.238,VALID,0,VALID,94.1496,VALID,0,VALID,20.273,VALID,4,VALID,0.486779,
2001-03-20, 00:31:00,VALID,918.223,VALID,0,VALID,94.1687,VALID,-0.0339617,VALID,20.273,VALID,1,VALID,0.317229,
2001-03-20, 00:32:01,VALID,918.21,VALID,0,VALID,94.1623,VALID,-0.0339617,VALID,20.2665,VALID,358,VALID,0.257813,
2001-03-20, 00:33:00,VALID,918.199,VALID,0,VALID,94.348,VALID,-0.0169808,VALID,20.2566,VALID,324,VALID,0.247852,
2001-03-20, 00:34:00,VALID,918.162,VALID,0,VALID,94.6811,VALID,-0.0169808,VALID,20.2921,VALID,46,VALID,0.249199,
2001-03-20, 00:35:01,VALID,918.118,VALID,0,VALID,94.5095,VALID,-0.0169808,VALID,20.3182,VALID,101,VALID,0.327097,
2001-03-20, 00:36:00,VALID,918.064,VALID,0,VALID,94.4777,VALID,0,VALID,20.3309,VALID,105,VALID,0.518555,
2001-03-20, 00:37:00,VALID,918.029,VALID,0,VALID,94.3314,VALID,-0.0169808,VALID,20.3473,VALID,102,VALID,0.243359,
2001-03-20, 00:38:00,VALID,918.01,VALID,0,VALID,94.217,VALID,-0.0339617,VALID,20.3438,VALID,53,VALID,0.499399,
2001-03-20, 00:39:00,VALID,917.971,VALID,0,VALID,94.4166,VALID,-0.0169808,VALID,20.3505,VALID,54,VALID,0.362459,
2001-03-20, 00:40:01,VALID,917.956,VALID,0,VALID,94.5184,VALID,-0.0169808,VALID,20.3861,VALID,78,VALID,0.319531,
2001-03-20, 00:41:01,VALID,917.927,VALID,0,VALID,94.3543,VALID,-0.0169808,VALID,20.3888,VALID,89,VALID,0.630664,
2001-03-20, 00:42:00,VALID,917.91,VALID,0,VALID,94.1509,VALID,-0.0169808,VALID,20.3726,VALID,92,VALID,0.714543,
2001-03-20, 00:43:01,VALID,917.897,VALID,0,VALID,94.175,VALID,-0.0169808,VALID,20.3734,VALID,84,VALID,0.561061,
2001-03-20, 00:44:01,VALID,917.902,VALID,0,VALID,94.278,VALID,0,VALID,20.3468,VALID,53,VALID,0.263086,
2001-03-20, 00:45:00,VALID,917.887,VALID,0,VALID,94.4192,VALID,-0.0339617,VALID,20.3664,VALID,58,VALID,0.176367,
2001-03-20, 00:46:00,VALID,917.858,VALID,0,VALID,94.4421,VALID,0,VALID,20.385,VALID,95,VALID,0.716546,
2001-03-20, 00:47:01,VALID,917.807,VALID,0,VALID,94.3543,VALID,-0.0339617,VALID,20.399,VALID,88,VALID,0.731702,
2001-03-20, 00:48:00,VALID,917.774,VALID,0,VALID,94.2679,VALID,-0.0339617,VALID,20.396,VALID,87,VALID,0.689648,
2001-03-20, 00:49:01,VALID,917.744,VALID,0,VALID,94.2323,VALID,-0.0509425,VALID,20.3535,VALID,87,VALID,0.776172,
2001-03-20, 00:50:00,VALID,917.708,VALID,0,VALID,94.3607,VALID,-0.0339617,VALID,20.3406,VALID,95,VALID,0.934295,
2001-03-20, 00:51:01,VALID,917.669,VALID,0,VALID,94.2806,VALID,-0.0169808,VALID,20.3249,VALID,95,VALID,1.05613,
2001-03-20, 00:52:01,VALID,917.643,VALID,0,VALID,94.3378,VALID,-0.0509425,VALID,20.2765,VALID,85,VALID,1.1582,
2001-03-20, 00:53:00,VALID,917.612,VALID,0,VALID,94.6532,VALID,-0.0509425,VALID,20.2409,VALID,71,VALID,0.968164,
2001-03-20, 00:54:00,VALID,917.598,VALID,0,VALID,94.8757,VALID,-0.0509425,VALID,20.2278,VALID,82,VALID,1.10136,
2001-03-20, 00:55:01,VALID,917.587,VALID,0,VALID,94.9838,VALID,-0.0339617,VALID,20.2019,VALID,70,VALID,1.00781,
2001-03-20, 00:56:01,VALID,917.581,VALID,0,VALID,95.2267,VALID,-0.0339617,VALID,20.2017,VALID,64,VALID,0.769727,
2001-03-20, 00:57:01,VALID,917.581,VALID,0,VALID,95.3119,VALID,-0.0509425,VALID,20.2221,VALID,77,VALID,0.646289,
2001-03-20, 00:58:01,VALID,917.558,VALID,0,VALID,95.3068,VALID,-0.0509425,VALID,20.2342,VALID,73,VALID,0.606971,
2001-03-20, 00:59:01,VALID,917.542,VALID,0,VALID,95.2445,VALID,-0.0679233,VALID,20.2407,VALID,75,VALID,0.870477,
2001-03-20, 01:00:01,VALID,917.511,VALID,0,VALID,95.2241,VALID,-0.101885,VALID,20.2533,VALID,78,VALID,0.463405,
2001-03-20, 01:01:01,VALID,917.475,VALID,0,VALID,95.1796,VALID,-0.0339617,VALID,20.2596,VALID,78,VALID,0.353516,
2001-03-20, 01:02:01,VALID,917.443,VALID,0,VALID,95.186,VALID,-0.0509425,VALID,20.2668,VALID,66,VALID,0.501603,
2001-03-20, 01:03:01,VALID,917.417,VALID,0,VALID,95.1554,VALID,0,VALID,20.2692,VALID,76,VALID,0.26727,
2001-03-20, 01:04:01,VALID,917.389,VALID,0,VALID,95.1389,VALID,-0.0509425,VALID,20.263,VALID,67,VALID,0.564453,
2001-03-20, 01:05:01,VALID,917.369,VALID,0,VALID,95.247,VALID,0,VALID,20.2762,VALID,77,VALID,0.505469,
2001-03-20, 01:06:01,VALID,917.329,VALID,0,VALID,95.2864,VALID,0.0339617,VALID,20.2618,VALID,84,VALID,0.683894,
2001-03-20, 01:07:01,VALID,917.287,VALID,0,VALID,95.2775,VALID,0.0679233,VALID,20.2709,VALID,92,VALID,0.861431,
2001-03-20, 01:08:01,VALID,917.254,VALID,0,VALID,95.3004,VALID,0.101885,VALID,20.2817,VALID,82,VALID,0.616016,
2001-03-20, 01:09:01,VALID,917.211,VALID,0,VALID,95.3881,VALID,0.0679233,VALID,20.2707,VALID,96,VALID,1.0877,
2001-03-20, 01:10:01,VALID,917.166,VALID,0,VALID,95.4021,VALID,0.0849042,VALID,20.2839,VALID,66,VALID,0.923678,
2001-03-20, 01:11:01,VALID,917.12,VALID,0,VALID,95.3347,VALID,0.0849042,VALID,20.2707,VALID,73,VALID,1.17619,
2001-03-20, 01:12:01,VALID,917.085,VALID,0,VALID,95.3475,VALID,0.101885,VALID,20.2645,VALID,95,VALID,1.18516,
2001-03-20, 01:13:01,VALID,917.053,VALID,0,VALID,95.3055,VALID,0.0849042,VALID,20.2647,VALID,94,VALID,1.80313,
2001-03-20, 01:14:01,VALID,917,VALID,0,VALID,95.2928,VALID,0.101885,VALID,20.2647,VALID,97,VALID,1.38702,
2001-03-20, 01:15:01,VALID,916.98,VALID,0,VALID,95.2419,VALID,0.0849042,VALID,20.2613,VALID,63,VALID,1.38384,
2001-03-20, 01:16:01,VALID,916.963,VALID,0,VALID,95.1834,VALID,0.0849042,VALID,20.2642,VALID,64,VALID,1.10547,
2001-03-20, 01:17:00,VALID,916.942,VALID,0,VALID,95.1682,VALID,0.101885,VALID,20.2642,VALID,57,VALID,1.11113,
2001-03-20, 01:18:00,VALID,916.942,VALID,0,VALID,95.2267,VALID,0.118866,VALID,20.2511,VALID,68,VALID,1.18209,
2001-03-20, 01:19:00,VALID,916.931,VALID,0,VALID,95.2432,VALID,0.101885,VALID,20.2545,VALID,87,VALID,1.56764,
2001-03-20, 01:20:00,VALID,916.903,VALID,0,VALID,95.1974,VALID,0.101885,VALID,20.2744,VALID,79,VALID,1.60488,
2001-03-20, 01:21:00,VALID,916.889,VALID,0,VALID,95.0588,VALID,0.0679233,VALID,20.2938,VALID,82,VALID,1.4666,
2001-03-20, 01:22:00,VALID,916.85,VALID,0,VALID,94.9812,VALID,-0.0169808,VALID,20.311,VALID,87,VALID,1.10697,
2001-03-20, 01:23:00,VALID,916.854,VALID,0,VALID,94.9304,VALID,-0.0169808,VALID,20.2978,VALID,46,VALID,0.475535,
2001-03-20, 01:24:00,VALID,916.848,VALID,0,VALID,94.9393,VALID,-0.0509425,VALID,20.3043,VALID,74,VALID,0.267773,
2001-03-20, 01:25:00,VALID,916.852,VALID,0,VALID,94.9444,VALID,-0.0339617,VALID,20.308,VALID,347,VALID,0.430664,
2001-03-20, 01:26:00,VALID,916.835,VALID,0,VALID,94.9863,VALID,-0.0169808,VALID,20.301,VALID,47,VALID,0.589744,
2001-03-20, 01:27:00,VALID,916.85,VALID,0,VALID,94.9545,VALID,0,VALID,20.272,VALID,339,VALID,0.135074,
2001-03-20, 01:28:00,VALID,916.848,VALID,0,VALID,95.0842,VALID,-0.0509425,VALID,20.2658,VALID,342,VALID,0.135547,
2001-03-20, 01:29:00,VALID,916.843,VALID,0,VALID,95.2025,VALID,-0.0339617,VALID,20.2787,VALID,347,VALID,0.0501953,
2001-03-20, 01:30:00,VALID,916.856,VALID,0,VALID,95.1504,VALID,0,VALID,20.2884,VALID,302,VALID,0.284054,
2001-03-20, 01:31:00,VALID,916.848,VALID,0,VALID,95.1071,VALID,-0.0169808,VALID,20.2854,VALID,294,VALID,0.0425576,
2001-03-20, 01:32:00,VALID,916.823,VALID,0,VALID,95.2279,VALID,0,VALID,20.2717,VALID,152,VALID,0.467773,
2001-03-20, 01:33:00,VALID,916.799,VALID,0,VALID,95.2826,VALID,-0.0169808,VALID,20.2913,VALID,83,VALID,0.479492,
2001-03-20, 01:34:00,VALID,916.772,VALID,0,VALID,95.1974,VALID,0,VALID,20.304,VALID,95,VALID,0.329728,
2001-03-20, 01:35:00,VALID,916.759,VALID,0,VALID,95.2012,VALID,0,VALID,20.2981,VALID,95,VALID,0.147821,
2001-03-20, 01:36:00,VALID,916.741,VALID,0,VALID,95.233,VALID,0,VALID,20.2951,VALID,95,VALID,0.400195,
2001-03-20, 01:37:00,VALID,916.706,VALID,0,VALID,95.2661,VALID,-0.0509425,VALID,20.2789,VALID,96,VALID,0.852148,
2001-03-20, 01:38:00,VALID,916.679,VALID,0,VALID,95.3131,VALID,-0.0339617,VALID,20.2561,VALID,91,VALID,1.43289,
2001-03-20, 01:39:00,VALID,916.645,VALID,0,VALID,95.5585,VALID,0,VALID,20.2267,VALID,101,VALID,1.52611,
2001-03-20, 01:40:00,VALID,916.619,VALID,0,VALID,95.6501,VALID,-0.0169808,VALID,20.227,VALID,94,VALID,0.667383,
2001-03-20, 01:41:00,VALID,916.606,VALID,0,VALID,95.6437,VALID,0,VALID,20.2235,VALID,87,VALID,0.489062,
2001-03-20, 01:42:00,VALID,916.591,VALID,0,VALID,95.6298,VALID,-0.0169808,VALID,20.2203,VALID,102,VALID,0.304287,
2001-03-20, 01:43:00,VALID,916.589,VALID,0,VALID,95.6844,VALID,-0.0169808,VALID,20.227,VALID,109,VALID,0.720806,
2001-03-20, 01:44:00,VALID,916.59,VALID,0,VALID,95.715,VALID,-0.0169808,VALID,20.2461,VALID,104,VALID,0.564453,
2001-03-20, 01:45:00,VALID,916.591,VALID,0,VALID,95.5941,VALID,-0.0509425,VALID,20.2464,VALID,108,VALID,0.578125,
2001-03-20, 01:46:00,VALID,916.569,VALID,0,VALID,95.57,VALID,-0.0169808,VALID,20.2496,VALID,80,VALID,0.192308,
2001-03-20, 01:47:00,VALID,916.574,VALID,0,VALID,95.5636,VALID,0,VALID,20.2558,VALID,90,VALID,0,
2001-03-20, 01:48:00,VALID,916.58,VALID,0,VALID,95.4746,VALID,-0.0679233,VALID,20.2725,VALID,192,VALID,0.191992,
2001-03-20, 01:49:00,VALID,916.59,VALID,0,VALID,95.5573,VALID,-0.0339617,VALID,20.2986,VALID,115,VALID,0.523047,
2001-03-20, 01:50:00,VALID,916.622,VALID,0,VALID,95.6463,VALID,-0.0509425,VALID,20.3142,VALID,104,VALID,0.373998,
2001-03-20, 01:51:00,VALID,916.605,VALID,0,VALID,95.5229,VALID,-0.0679233,VALID,20.3403,VALID,95,VALID,0.48787,
2001-03-20, 01:52:00,VALID,916.615,VALID,0,VALID,95.3347,VALID,-0.0679233,VALID,20.3438,VALID,99,VALID,0.229297,
2001-03-20, 01:53:00,VALID,916.602,VALID,0,VALID,95.3564,VALID,-0.0679233,VALID,20.347,VALID,229,VALID,0.193555,
2001-03-20, 01:54:00,VALID,916.605,VALID,0,VALID,95.2165,VALID,-0.0339617,VALID,20.35,VALID,255,VALID,0.0865385,
2001-03-20, 01:55:00,VALID,916.626,VALID,0,VALID,95.219,VALID,-0.0679233,VALID,20.3597,VALID,171,VALID,0.340049,
2001-03-20, 01:56:00,VALID,916.625,VALID,0,VALID,95.1961,VALID,-0.0339617,VALID,20.3853,VALID,107,VALID,0.530273,
2001-03-20, 01:57:00,VALID,916.627,VALID,0,VALID,94.9711,VALID,-0.0679233,VALID,20.4076,VALID,126,VALID,0.392188,
2001-03-20, 01:58:00,VALID,916.643,VALID,0,VALID,94.7969,VALID,-0.0679233,VALID,20.4014,VALID,95,VALID,0.640024,
2001-03-20, 01:59:00,VALID,916.647,VALID,0,VALID,94.7536,VALID,-0.0679233,VALID,20.3885,VALID,336,VALID,0.377262,
2001-03-20, 02:00:00,VALID,916.642,VALID,0,VALID,94.8744,VALID,-0.0169808,VALID,20.4047,VALID,150,VALID,0.270508,
2001-03-20, 02:01:00,VALID,916.66,VALID,0,VALID,95.0003,VALID,-0.0169808,VALID,20.4206,VALID,149,VALID,0.156641,
2001-03-20, 02:02:00,VALID,916.654,VALID,0,VALID,95.0041,VALID,-0.0509425,VALID,20.4536,VALID,91,VALID,0.769231,
2001-03-20, 02:03:00,VALID,916.648,VALID,0,VALID,94.9329,VALID,-0.0679233,VALID,20.444,VALID,86,VALID,0.594572,
2001-03-20, 02:04:00,VALID,916.644,VALID,0,VALID,95.0474,VALID,-0.0509425,VALID,20.4278,VALID,101,VALID,0.956445,
2001-03-20, 02:05:00,VALID,916.615,VALID,0,VALID,95.1453,VALID,-0.0849042,VALID,20.4241,VALID,110,VALID,1.08164,
2001-03-20, 02:06:00,VALID,916.618,VALID,0,VALID,95.1415,VALID,-0.0339617,VALID,20.4082,VALID,84,VALID,1.0621,
2001-03-20, 02:07:00,VALID,916.584,VALID,0,VALID,95.1554,VALID,-0.0339617,VALID,20.3952,VALID,86,VALID,0.75884,
2001-03-20, 02:08:00,VALID,916.624,VALID,0,VALID,95.1961,VALID,-0.0169808,VALID,20.3885,VALID,97,VALID,1.08418,
2001-03-20, 02:09:00,VALID,916.628,VALID,0,VALID,95.4072,VALID,-0.0509425,VALID,20.3793,VALID,128,VALID,0.654102,
2001-03-20, 02:10:00,VALID,916.631,VALID,0,VALID,95.392,VALID,-0.0509425,VALID,20.3985,VALID,52,VALID,0.707131,
2001-03-20, 02:11:00,VALID,916.624,VALID,0,VALID,95.2508,VALID,-0.0679233,VALID,20.4049,VALID,118,VALID,0.615543,
2001-03-20, 02:12:00,VALID,916.629,VALID,0,VALID,95.3424,VALID,-0.0169808,VALID,20.398,VALID,97,VALID,0.833203,
2001-03-20, 02:13:00,VALID,916.644,VALID,0,VALID,95.4416,VALID,-0.0339617,VALID,20.4049,VALID,98,VALID,0.711328,
2001-03-20, 02:14:00,VALID,916.65,VALID,0,VALID,95.4797,VALID,-0.0169808,VALID,20.4009,VALID,102,VALID,0.49399,
2001-03-20, 02:15:00,VALID,916.661,VALID,0,VALID,95.5802,VALID,-0.0509425,VALID,20.4273,VALID,105,VALID,0.158306,
2001-03-20, 02:16:00,VALID,916.67,VALID,0,VALID,95.4416,VALID,0,VALID,20.4467,VALID,122,VALID,0.0740234,
2001-03-20, 02:17:00,VALID,916.679,VALID,0,VALID,95.3881,VALID,-0.0169808,VALID,20.4561,VALID,103,VALID,0.812109,
2001-03-20, 02:18:00,VALID,916.665,VALID,0,VALID,95.3462,VALID,0,VALID,20.4469,VALID,24,VALID,0.659255,
2001-03-20, 02:19:00,VALID,916.678,VALID,0,VALID,95.3907,VALID,-0.0339617,VALID,20.434,VALID,92,VALID,0.527961,
2001-03-20, 02:20:00,VALID,916.673,VALID,0,VALID,95.4594,VALID,0,VALID,20.4206,VALID,38,VALID,0.505273,
2001-03-20, 02:21:00,VALID,916.671,VALID,0,VALID,95.4555,VALID,0,VALID,20.398,VALID,111,VALID,1.08223,
2001-03-20, 02:22:00,VALID,916.652,VALID,0,VALID,95.617,VALID,-0.0339617,VALID,20.4076,VALID,18,VALID,0.659455,
2001-03-20, 02:23:00,VALID,916.663,VALID,0,VALID,95.5776,VALID,0,VALID,20.4241,VALID,93,VALID,0.925576,
2001-03-20, 02:24:00,VALID,916.621,VALID,0,VALID,95.6374,VALID,0,VALID,20.4201,VALID,103,VALID,1.42344,
2001-03-20, 02:25:00,VALID,916.602,VALID,0,VALID,95.6615,VALID,0.0169808,VALID,20.4198,VALID,101,VALID,1.21172,
2001-03-20, 02:26:00,VALID,916.583,VALID,0,VALID,95.6348,VALID,0.0169808,VALID,20.4106,VALID,106,VALID,1.26583,
2001-03-20, 02:27:00,VALID,916.576,VALID,0,VALID,95.6997,VALID,0,VALID,20.4109,VALID,98,VALID,0.629317,
2001-03-20, 02:28:00,VALID,916.569,VALID,0,VALID,95.7213,VALID,0.0339617,VALID,20.4238,VALID,110,VALID,0.263281,
2001-03-20, 02:29:00,VALID,916.578,VALID,0,VALID,95.6425,VALID,0.0169808,VALID,20.4332,VALID,199,VALID,0.416992,
2001-03-20, 02:30:00,VALID,916.528,VALID,0,VALID,95.631,VALID,0.0339617,VALID,20.4365,VALID,61,VALID,0.899639,
2001-03-20, 02:31:00,VALID,916.464,VALID,0,VALID,95.6463,VALID,0,VALID,20.437,VALID,71,VALID,0.922081,
2001-03-20, 02:32:00,VALID,916.386,VALID,0,VALID,95.6488,VALID,0,VALID,20.3982,VALID,89,VALID,1.27793,
2001-03-20, 02:33:00,VALID,916.357,VALID,0,VALID,95.8485,VALID,0,VALID,20.3781,VALID,90,VALID,1.44941,
2001-03-20, 02:34:00,VALID,916.323,VALID,0,VALID,95.9019,VALID,0.0169808,VALID,20.3751,VALID,99,VALID,1.36298,
2001-03-20, 02:35:00,VALID,916.294,VALID,0,VALID,95.9705,VALID,0,VALID,20.3719,VALID,100,VALID,0.929482,
2001-03-20, 02:36:00,VALID,916.303,VALID,0,VALID,96.029,VALID,0,VALID,20.3686,VALID,66,VALID,0.734961,
2001-03-20, 02:37:00,VALID,916.347,VALID,0,VALID,96.0341,VALID,0,VALID,20.3815,VALID,204,VALID,0.285937,
2001-03-20, 02:38:00,VALID,916.393,VALID,0,VALID,95.9845,VALID,0,VALID,20.3915,VALID,227,VALID,0.364784,
2001-03-20, 02:39:00,VALID,916.415,VALID,0,VALID,95.926,VALID,0,VALID,20.4014,VALID,196,VALID,0.672081,
2001-03-20, 02:40:00,VALID,916.408,VALID,0,VALID,95.9489,VALID,-0.0169808,VALID,20.3883,VALID,65,VALID,0.94375,
2001-03-20, 02:41:00,VALID,916.417,VALID,0,VALID,96.0201,VALID,-0.0169808,VALID,20.3885,VALID,103,VALID,0.789453,
2001-03-20, 02:42:00,VALID,916.414,VALID,0,VALID,95.9998,VALID,0,VALID,20.3945,VALID,97,VALID,0.70633,
2001-03-20, 02:43:00,VALID,916.427,VALID,0,VALID,96.01,VALID,0,VALID,20.4044,VALID,92,VALID,0.646998,
2001-03-20, 02:44:00,VALID,916.436,VALID,0,VALID,95.996,VALID,-0.0169808,VALID,20.3982,VALID,105,VALID,0.529883,
2001-03-20, 02:45:00,VALID,916.404,VALID,0,VALID,96.0494,VALID,0.0169808,VALID,20.3912,VALID,95,VALID,0.793945,
2001-03-20, 02:46:00,VALID,916.382,VALID,0,VALID,96.1244,VALID,0.0169808,VALID,20.4017,VALID,110,VALID,0.21855,
2001-03-20, 02:47:00,VALID,916.342,VALID,0,VALID,96.1053,VALID,0,VALID,20.4111,VALID,97,VALID,0.511308,
2001-03-20, 02:48:00,VALID,916.327,VALID,0,VALID,96.1206,VALID,0,VALID,20.4047,VALID,92,VALID,0.70332,
2001-03-20, 02:49:00,VALID,916.301,VALID,0,VALID,96.0837,VALID,0,VALID,20.4082,VALID,99,VALID,1.05723,
2001-03-20, 02:50:00,VALID,916.259,VALID,0,VALID,96.1587,VALID,0,VALID,20.4014,VALID,104,VALID,1.19992,
2001-03-20, 02:51:00,VALID,916.21,VALID,0,VALID,96.1842,VALID,0,VALID,20.4044,VALID,86,VALID,0.639597,
2001-03-20, 02:52:00,VALID,916.176,VALID,0,VALID,96.1384,VALID,-0.0169808,VALID,20.4109,VALID,93,VALID,1.03184,
2001-03-20, 02:53:00,VALID,916.143,VALID,0,VALID,96.1079,VALID,0,VALID,20.3845,VALID,95,VALID,1.17754,
2001-03-20, 02:54:00,VALID,916.114,VALID,0,VALID,96.0735,VALID,0,VALID,20.3818,VALID,89,VALID,1.40705,
2001-03-20, 02:55:00,VALID,916.104,VALID,0,VALID,96.0417,VALID,-0.0339617,VALID,20.3751,VALID,83,VALID,1.13302,
2001-03-20, 02:56:00,VALID,916.123,VALID,0,VALID,96.0354,VALID,-0.0169808,VALID,20.3945,VALID,146,VALID,0.539258,
2001-03-20, 02:57:00,VALID,916.132,VALID,0,VALID,95.9553,VALID,0,VALID,20.3912,VALID,184,VALID,0.429688,
2001-03-20, 02:58:00,VALID,916.128,VALID,0,VALID,95.94,VALID,-0.0169808,VALID,20.3985,VALID,113,VALID,0.955329,
2001-03-20, 02:59:00,VALID,916.093,VALID,0,VALID,96.01,VALID,-0.0169808,VALID,20.395,VALID,98,VALID,0.532689,
2001-03-20, 03:00:00,VALID,916.044,VALID,0,VALID,96.0061,VALID,0,VALID,20.4014,VALID,101,VALID,0.650977,
2001-03-20, 03:01:00,VALID,916.012,VALID,0,VALID,96.029,VALID,-0.0169808,VALID,20.4014,VALID,59,VALID,0.60332,
2001-03-20, 03:02:00,VALID,915.99,VALID,0,VALID,96.01,VALID,0,VALID,20.3945,VALID,104,VALID,0.928886,
2001-03-20, 03:03:00,VALID,915.989,VALID,0,VALID,96.0176,VALID,0,VALID,20.3987,VALID,102,VALID,0.771176,
2001-03-20, 03:04:00,VALID,915.979,VALID,0,VALID,95.9744,VALID,0,VALID,20.4012,VALID,100,VALID,0.404492,
2001-03-20, 03:05:00,VALID,915.956,VALID,0,VALID,95.8688,VALID,0,VALID,20.4039,VALID,74,VALID,0.841406,
2001-03-20, 03:06:00,VALID,915.922,VALID,0,VALID,95.6921,VALID,-0.0169808,VALID,20.3756,VALID,88,VALID,1.03606,
2001-03-20, 03:07:00,VALID,915.889,VALID,0,VALID,95.7607,VALID,0.0169808,VALID,20.3353,VALID,100,VALID,1.18133,
2001-03-20, 03:08:00,VALID,915.863,VALID,0,VALID,95.8434,VALID,0,VALID,20.3266,VALID,89,VALID,0.97168,
2001-03-20, 03:09:00,VALID,915.89,VALID,0,VALID,95.8714,VALID,0.0339617,VALID,20.3172,VALID,90,VALID,1.21484,
2001-03-20, 03:10:00,VALID,915.91,VALID,0,VALID,95.996,VALID,0.0169808,VALID,20.2881,VALID,91,VALID,1.48498,
2001-03-20, 03:11:00,VALID,915.922,VALID,0,VALID,96.1626,VALID,-0.0339617,VALID,20.272,VALID,80,VALID,1.09231,
2001-03-20, 03:12:00,VALID,915.905,VALID,0,VALID,96.277,VALID,-0.0169808,VALID,20.2464,VALID,84,VALID,1.61699,
2001-03-20, 03:13:00,VALID,915.842,VALID,0,VALID,96.3571,VALID,0.0169808,VALID,20.2106,VALID,79,VALID,1.80859,
2001-03-20, 03:14:00,VALID,915.8,VALID,0,VALID,96.3876,VALID,0,VALID,20.1818,VALID,85,VALID,1.69411,
2001-03-20, 03:15:00,VALID,915.798,VALID,0,VALID,96.5453,VALID,0,VALID,20.1753,VALID,97,VALID,1.70806,
2001-03-20, 03:16:00,VALID,915.776,VALID,0,VALID,96.6966,VALID,0,VALID,20.1853,VALID,94,VALID,1.42285,
2001-03-20, 03:17:00,VALID,915.733,VALID,0,VALID,96.6788,VALID,-0.0169808,VALID,20.1949,VALID,82,VALID,1.17793,
2001-03-20, 03:18:00,VALID,915.677,VALID,0,VALID,96.586,VALID,-0.0339617,VALID,20.1659,VALID,76,VALID,1.14042,
2001-03-20, 03:19:00,VALID,915.654,VALID,0,VALID,96.6229,VALID,-0.0679233,VALID,20.1465,VALID,86,VALID,1.62336,
2001-03-20, 03:20:00,VALID,915.649,VALID,0,VALID,96.6992,VALID,-0.0339617,VALID,20.1467,VALID,44,VALID,0.933203,
2001-03-20, 03:21:00,VALID,915.638,VALID,0,VALID,96.7386,VALID,0,VALID,20.1524,VALID,106,VALID,0.638086,
2001-03-20, 03:22:00,VALID,915.618,VALID,0,VALID,96.6915,VALID,0.0339617,VALID,20.1581,VALID,51,VALID,0.711538,
2001-03-20, 03:23:00,VALID,915.596,VALID,0,VALID,96.6445,VALID,0.0509425,VALID,20.142,VALID,337,VALID,0.976563,
2001-03-20, 03:24:00,VALID,915.572,VALID,0,VALID,96.7119,VALID,0.0169808,VALID,20.1385,VALID,305,VALID,0.341016,
2001-03-20, 03:25:00,VALID,915.577,VALID,0,VALID,96.7805,VALID,0.0509425,VALID,20.1576,VALID,285,VALID,0,
2001-03-20, 03:26:00,VALID,915.562,VALID,0,VALID,96.8454,VALID,0.0679233,VALID,20.177,VALID,282,VALID,0.0386619,
2001-03-20, 03:27:00,VALID,915.52,VALID,0,VALID,96.7551,VALID,0.0679233,VALID,20.1795,VALID,272,VALID,0.279811,
2001-03-20, 03:28:00,VALID,915.511,VALID,0,VALID,96.7182,VALID,0.0679233,VALID,20.1959,VALID,278,VALID,0,
2001-03-20, 03:29:00,VALID,915.533,VALID,0,VALID,96.7882,VALID,0.0339617,VALID,20.2123,VALID,47,VALID,0.246875,
2001-03-20, 03:30:00,VALID,915.544,VALID,0,VALID,96.7449,VALID,0.0339617,VALID,20.2454,VALID,98,VALID,0.0592949,
2001-03-20, 03:31:00,VALID,915.566,VALID,0,VALID,96.6712,VALID,0.0339617,VALID,20.2677,VALID,97,VALID,0.0522204,
2001-03-20, 03:32:00,VALID,915.579,VALID,0,VALID,96.6013,VALID,0.0339617,VALID,20.2804,VALID,92,VALID,0.096875,
2001-03-20, 03:33:00,VALID,915.571,VALID,0,VALID,96.427,VALID,0.0509425,VALID,20.2836,VALID,183,VALID,0.00175781,
2001-03-20, 03:34:00,VALID,915.542,VALID,0,VALID,96.394,VALID,0.0679233,VALID,20.2809,VALID,58,VALID,0.462941,